| time (UTC) | temp C | wind direction | speed KPH | gust KPH | rain 1hr cm | rain 24hr cm | rain mn cm | humidity % | barometer mb |
| 20260509224536 | 22 | 163 | 1.6 | 6.4 | 0.00 | 0.00 | 0.00 | 57 | 1008.8 |
| 20260509223036 | 22 | 111 | 1.6 | 4.8 | 0.00 | 0.00 | 0.00 | 56 | 1008.9 |
| 20260509221535 | 22 | 270 | 1.6 | 6.4 | 0.00 | 0.00 | 0.00 | 56 | 1008.9 |
| 20260509220038 | 21 | 280 | 1.6 | 6.4 | 0.00 | 0.00 | 0.00 | 55 | 1008.9 |
| 20260509214536 | 21 | 0 | 1.6 | 6.4 | 0.00 | 0.00 | 0.00 | 58 | 1008.8 |
| 20260509213034 | 21 | 341 | 1.6 | 6.4 | 0.00 | 0.00 | 0.00 | 60 | 1008.8 |
| 20260509211531 | 21 | 0 | 1.6 | 6.4 | 0.00 | 0.00 | 0.00 | 56 | 1008.8 |
| 20260509210039 | 21 | 0 | 0.0 | 4.8 | 0.00 | 0.00 | 0.00 | 56 | 1008.8 |
| 20260509204537 | 21 | 297 | 3.2 | 12.9 | 0.00 | 0.00 | 0.00 | 56 | 1008.7 |
| 20260509203033 | 21 | 104 | 3.2 | 14.5 | 0.00 | 0.00 | 0.00 | 56 | 1008.7 |
| 20260509201532 | 21 | 232 | 3.2 | 11.3 | 0.00 | 0.00 | 0.00 | 55 | 1008.9 |
| 20260509200037 | 21 | 103 | 1.6 | 9.7 | 0.00 | 0.00 | 0.00 | 60 | 1009.0 |
| 20260509194538 | 21 | 299 | 1.6 | 14.5 | 0.00 | 0.00 | 0.00 | 57 | 1009.1 |
| 20260509193031 | 20 | 82 | 1.6 | 6.4 | 0.00 | 0.00 | 0.00 | 59 | 1009.1 |
| 20260509191530 | 21 | 248 | 3.2 | 12.9 | 0.00 | 0.00 | 0.00 | 57 | 1009.1 |
| 20260509190032 | 21 | 180 | 4.8 | 14.5 | 0.00 | 0.00 | 0.00 | 58 | 1009.5 |
| 20260509184539 | 20 | 172 | 1.6 | 11.3 | 0.00 | 0.00 | 0.00 | 57 | 1009.7 |
| 20260509183035 | 20 | 103 | 3.2 | 11.3 | 0.00 | 0.00 | 0.00 | 58 | 1009.8 |
| 20260509181543 | 19 | 110 | 1.6 | 11.3 | 0.00 | 0.00 | 0.00 | 58 | 1010.0 |
| 20260509180032 | 18 | 166 | 6.4 | 12.9 | 0.00 | 0.00 | 0.00 | 58 | 1010.1 |
| 20260509174535 | 18 | 135 | 3.2 | 12.9 | 0.00 | 0.00 | 0.00 | 59 | 1010.6 |
| 20260509173030 | 18 | 107 | 1.6 | 6.4 | 0.00 | 0.00 | 0.00 | 58 | 1010.7 |
| 20260509171536 | 18 | 259 | 1.6 | 12.9 | 0.00 | 0.00 | 0.00 | 60 | 1011.1 |
| 20260509170032 | 18 | 173 | 1.6 | 6.4 | 0.00 | 0.00 | 0.00 | 59 | 1011.3 |
| 20260509164531 | 18 | 167 | 1.6 | 9.7 | 0.00 | 0.00 | 0.00 | 61 | 1011.3 |
| 20260509163041 | 18 | 160 | 4.8 | 12.9 | 0.00 | 0.00 | 0.00 | 60 | 1011.0 |
| 20260509161529 | 18 | 227 | 4.8 | 20.9 | 0.00 | 0.00 | 0.00 | 59 | 1010.8 |
| 20260509160032 | 18 | 152 | 6.4 | 16.1 | 0.00 | 0.00 | 0.00 | 62 | 1010.8 |
| 20260509154542 | 17 | 117 | 3.2 | 11.3 | 0.00 | 0.00 | 0.00 | 59 | 1011.0 |
| 20260509153033 | 18 | 105 | 3.2 | 8.0 | 0.00 | 0.00 | 0.00 | 58 | 1011.2 |
| 20260509151534 | 17 | 0 | 3.2 | 11.3 | 0.00 | 0.00 | 0.00 | 60 | 1011.2 |
| 20260509150033 | 17 | 165 | 3.2 | 9.7 | 0.00 | 0.00 | 0.00 | 60 | 1011.2 |
| 20260509144532 | 16 | 138 | 1.6 | 6.4 | 0.00 | 0.00 | 0.00 | 65 | 1011.4 |
| 20260509143045 | 15 | 277 | 1.6 | 8.0 | 0.00 | 0.00 | 0.00 | 65 | 1011.7 |
| 20260509141541 | 15 | 260 | 1.6 | 9.7 | 0.00 | 0.00 | 0.00 | 65 | 1011.8 |
| 20260509140040 | 14 | 236 | 3.2 | 6.4 | 0.00 | 0.00 | 0.00 | 67 | 1011.9 |
| 20260509134533 | 14 | 307 | 1.6 | 6.4 | 0.00 | 0.00 | 0.00 | 68 | 1011.5 |
| 20260509133034 | 13 | 0 | 0.0 | 4.8 | 0.00 | 0.00 | 0.00 | 69 | 1011.4 |
| 20260509131537 | 13 | 159 | 0.0 | 4.8 | 0.00 | 0.00 | 0.00 | 70 | 1011.6 |
| 20260509130039 | 13 | 0 | 0.0 | 4.8 | 0.00 | 0.00 | 0.00 | 67 | 1011.6 |
| 20260509124535 | 13 | 121 | 0.0 | 8.0 | 0.00 | 0.00 | 0.00 | 70 | 1011.8 |
| 20260509123045 | 12 | 229 | 3.2 | 6.4 | 0.00 | 0.00 | 0.00 | 71 | 1011.9 |
| 20260509121534 | 12 | 101 | 0.0 | 4.8 | 0.00 | 0.00 | 0.00 | 74 | 1011.7 |
| 20260509120030 | 12 | 0 | 0.0 | 3.2 | 0.00 | 0.00 | 0.00 | 75 | 1011.5 |
| 20260509114535 | 12 | 293 | 0.0 | 3.2 | 0.00 | 0.00 | 0.00 | 73 | 1011.5 |
| 20260509113038 | 12 | 0 | 0.0 | 1.6 | 0.00 | 0.00 | 0.00 | 73 | 1011.2 |
| 20260509111542 | 12 | 0 | 0.0 | 3.2 | 0.00 | 0.00 | 0.00 | 70 | 1011.2 |
| 20260509110033 | 12 | 258 | 0.0 | 3.2 | 0.00 | 0.00 | 0.00 | 68 | 1011.1 |
| 20260509104534 | 12 | 0 | 0.0 | 4.8 | 0.00 | 0.00 | 0.00 | 68 | 1011.0 |
| 20260509103049 | 12 | 0 | 0.0 | 3.2 | 0.00 | 0.00 | 0.00 | 69 | 1011.0 |
| 20260509101534 | 12 | 0 | 0.0 | 4.8 | 0.00 | 0.00 | 0.00 | 69 | 1010.9 |
| 20260509100045 | 12 | 257 | 0.0 | 3.2 | 0.00 | 0.00 | 0.00 | 69 | 1011.1 |
| 20260509094534 | 12 | 0 | 0.0 | 3.2 | 0.00 | 0.00 | 0.00 | 69 | 1010.9 |
| 20260509093035 | 11 | 0 | 0.0 | 3.2 | 0.00 | 0.00 | 0.00 | 69 | 1011.0 |
| 20260509091538 | 11 | 0 | 0.0 | 3.2 | 0.00 | 0.00 | 0.00 | 69 | 1011.0 |
| 20260509090036 | 11 | 0 | 0.0 | 3.2 | 0.00 | 0.00 | 0.00 | 69 | 1011.0 |
| 20260509084532 | 11 | 0 | 0.0 | 3.2 | 0.00 | 0.00 | 0.00 | 70 | 1011.2 |
| 20260509083041 | 11 | 0 | 0.0 | 1.6 | 0.00 | 0.00 | 0.00 | 72 | 1011.2 |
| 20260509081535 | 11 | 0 | 0.0 | 1.6 | 0.00 | 0.00 | 0.00 | 72 | 1011.3 |
| 20260509080034 | 11 | 231 | 0.0 | 1.6 | 0.00 | 0.00 | 0.00 | 72 | 1011.3 |
| 20260509074531 | 11 | 0 | 0.0 | 3.2 | 0.00 | 0.00 | 0.00 | 72 | 1011.3 |
| 20260509073038 | 11 | 0 | 0.0 | 3.2 | 0.00 | 0.00 | 0.00 | 71 | 1011.3 |
| 20260509071532 | 11 | 240 | 0.0 | 1.6 | 0.00 | 0.00 | 0.00 | 69 | 1011.3 |
| 20260509070034 | 11 | 245 | 0.0 | 4.8 | 0.00 | 0.00 | 0.00 | 69 | 1011.3 |
| 20260509064533 | 11 | 0 | 0.0 | 0.0 | 0.00 | 0.00 | 0.00 | 70 | 1011.4 |
| 20260509063036 | 11 | 0 | 0.0 | 0.0 | 0.00 | 0.00 | 0.00 | 72 | 1011.7 |
| 20260509061542 | 10 | 0 | 0.0 | 0.0 | 0.00 | 0.00 | 0.00 | 73 | 1011.8 |
| 20260509060036 | 10 | 0 | 0.0 | 0.0 | 0.00 | 0.00 | 0.00 | 74 | 1011.8 |
| 20260509054541 | 10 | 0 | 0.0 | 0.0 | 0.00 | 0.00 | 0.00 | 76 | 1011.9 |
| 20260509053051 | 9 | 0 | 0.0 | 0.0 | 0.00 | 0.00 | 0.00 | 77 | 1011.8 |
| 20260509051534 | 9 | 0 | 0.0 | 0.0 | 0.00 | 0.00 | 0.00 | 80 | 1011.9 |
| 20260509050033 | 9 | 0 | 0.0 | 0.0 | 0.00 | 0.00 | 0.00 | 82 | 1011.9 |
| 20260509044538 | 9 | 0 | 0.0 | 4.8 | 0.00 | 0.00 | 0.00 | 81 | 1011.8 |
| 20260509043034 | 10 | 94 | 1.6 | 3.2 | 0.00 | 0.00 | 0.00 | 78 | 1011.8 |
| 20260509041534 | 9 | 0 | 0.0 | 1.6 | 0.00 | 0.00 | 0.00 | 75 | 1011.9 |
| 20260509040037 | 8 | 0 | 0.0 | 1.6 | 0.00 | 0.00 | 0.00 | 80 | 1012.0 |
| 20260509034535 | 8 | 0 | 0.0 | 0.0 | 0.00 | 0.00 | 0.00 | 82 | 1012.0 |
| 20260509033033 | 8 | 0 | 0.0 | 0.0 | 0.00 | 0.00 | 0.00 | 82 | 1012.0 |
| 20260509031533 | 8 | 0 | 0.0 | 0.0 | 0.00 | 0.00 | 0.00 | 82 | 1012.0 |
| 20260509030035 | 8 | 0 | 0.0 | 0.0 | 0.00 | 0.00 | 0.00 | 81 | 1012.3 |
| 20260509024536 | 9 | 0 | 0.0 | 0.0 | 0.00 | 0.00 | 0.00 | 80 | 1012.3 |
| 20260509023035 | 10 | 0 | 0.0 | 0.0 | 0.00 | 0.00 | 0.00 | 78 | 1012.3 |
| 20260509021534 | 10 | 0 | 0.0 | 0.0 | 0.00 | 0.00 | 0.00 | 77 | 1012.3 |
| 20260509020037 | 11 | 0 | 0.0 | 0.0 | 0.00 | 0.00 | 0.00 | 75 | 1012.2 |
| 20260509014535 | 12 | 0 | 0.0 | 0.0 | 0.00 | 0.00 | 0.00 | 72 | 1012.2 |
| 20260509013034 | 12 | 0 | 0.0 | 0.0 | 0.00 | 0.00 | 0.00 | 68 | 1012.1 |
| 20260509011532 | 13 | 0 | 0.0 | 0.0 | 0.00 | 0.00 | 0.00 | 65 | 1012.1 |
| 20260509010031 | 14 | 0 | 0.0 | 1.6 | 0.00 | 0.00 | 0.00 | 61 | 1012.0 |
| 20260509004537 | 14 | 159 | 1.6 | 9.7 | 0.00 | 0.00 | 0.00 | 56 | 1012.0 |
| 20260509003037 | 15 | 262 | 1.6 | 6.4 | 0.00 | 0.00 | 0.00 | 59 | 1012.0 |
| 20260509001532 | 16 | 0 | 0.0 | 0.0 | 0.00 | 0.00 | 0.00 | 60 | 1011.9 |
| 20260509000034 | 16 | 0 | 0.0 | 0.0 | 0.00 | 0.00 | 0.00 | 56 | 1011.8 |
| 20260508234533 | 17 | 0 | 0.0 | 0.0 | 0.00 | 0.00 | 0.00 | 56 | 1011.7 |
| 20260508233035 | 17 | 0 | 0.0 | 0.0 | 0.00 | 0.00 | 0.00 | 59 | 1011.7 |
| 20260508231540 | 18 | 0 | 0.0 | 0.0 | 0.00 | 0.00 | 0.00 | 54 | 1011.6 |
| 20260508230039 | 18 | 0 | 0.0 | 0.0 | 0.00 | 0.00 | 0.00 | 54 | 1011.5 |